Regional Weather Roundup
Issued by NWS Wakefield, VA

Home | Current Version | Previous Version | Text Only | Print | Product List | Glossary On
Versions: 1 2 3 4 5 6 7 8 9 10 11 12 13 14 15 16 17 18 19 20 21 22 23 24 25 26 27 28 29 30 31 32 33 34 35 36 37 38 39 40 41 42 43 44 45 46 47 48 49 50
000
ASUS41 KAKQ 300710
RWRAKQ

REGIONAL WEATHER ROUNDUP
NATIONAL WEATHER SERVICE WAKEFIELD VA
300 AM EDT SAT AUG 30 2014

Note: "fair" indicates few or no clouds below 12,000 feet with no
significant weather and/or obstructions to visibility. * = Denotes
station may not report precipitation (e.g., rain,snow,etc.),
thunder or fog.

VAZ042-051-052>054-056-300800-
NORTHERN VIRGINIA

CITY           SKY/WX    TMP DP  RH WIND       PRES   REMARKS
WASH NATIONAL  MOCLDY    70  61  73 S5        30.23S
DULLES         CLOUDY    66  60  81 CALM      30.22S
FORT BELVOIR   CLOUDY    64  61  90 CALM      30.22S
QUANTICO       CLOUDY    71  63  75 S12       30.22S
FREDERICKSBRG* CLOUDY    66  62  87 CALM      30.21R
STAFFORD*      CLOUDY    63  63 100 CALM      30.25S
WARRENTON      CLOUDY    67  67  99 CALM      30.21F
CULPEPER*      MOCLDY   N/A N/A N/A CALM      30.22S
MANASSAS*      CLOUDY    68  63  83 CALM      30.22S
LEESBURG*      CLOUDY    64  63  94 CALM      30.23S
WINCHESTER     CLOUDY    70  55  60 CALM      30.20F
$$

VAZ048-049-060>072-079>083-300800-
CENTRAL AND SOUTH CENTRAL VIRGINIA...AND NORTH CENTRAL NORTH CAROLINA

CITY           SKY/WX    TMP DP  RH WIND       PRES   REMARKS
RICHMOND       CLOUDY    70  63  78 CALM      30.21S
CHESTERFIELD*  CLOUDY   N/A N/A N/A CALM      30.22S
PETERSBURG*    CLOUDY    69  65  88 CALM      30.21S
HANOVER        CLOUDY    68  62  81 CALM      30.23S
TAPPAHANNOCK*  CLOUDY    68  62  80 CALM      30.21F
CHARLOTTSVILLE CLOUDY    69  62  78 CALM      30.21S
ORANGE*        LGT RAIN  64  63  94 CALM      30.23S
LOUISA*        CLOUDY    70  63  78 CALM      30.21R
FARMVILLE*     CLOUDY    72  70  94 CALM      30.19S
SOUTH HILL*      N/A     73  70  88 CALM      30.25S
ROANOKE RAPIDS CLOUDY    68  64  88 CALM      30.19S
RALEIGH        CLOUDY    74  69  85 SE8       30.18F
$$

VAZ088>098-300800-
SOUTHEAST VIRGINIA

CITY           SKY/WX    TMP DP  RH WIND       PRES   REMARKS
NORFOLK        CLOUDY    74  63  68 SE8       30.18F
VIRGINIA BEACH CLOUDY    73  64  73 E7        30.19S
NORFOLK NAVAL  MOCLDY    74  64  71 E6        30.20F
WEST POINT*    MOCLDY    67  63  86 CALM      30.22S
NEWPORT NEWS   PTCLDY    71  62  73 E3        30.19F
LANGLEY AFB    PTCLDY    74  63  67 SE5       30.19F
FORT EUSTIS    CLOUDY    72  61  68 CALM      30.18S
WILLIAMSBURG*  MOCLDY    73  66  78 SE3       30.21R
FRANKLIN*      CLOUDY    72  64  78 CALM      30.19S
WAKEFIELD      CLOUDY    71  64  78 CALM      30.20S
$$

VAZ020-022-025-037-045-300800-
WESTERN AND SOUTHWEST VIRGINIA

CITY           SKY/WX    TMP DP  RH WIND       PRES   REMARKS
STAUNTON*      MOCLDY    69  62  78 CALM      30.23S
HOT SPRINGS VA FOG       62  62 100 S7        30.33F VSB<1/4
LYNCHBURG      CLOUDY    72  70  93 CALM      30.23S
DANVILLE       CLOUDY    74  69  85 CALM      30.20S
MARTINSVILLE   MOCLDY    70  69  99 CALM      30.23S FOG
ROANOKE        CLOUDY    72  68  87 SE5       30.23F
BLACKSBURG     CLOUDY    70  70 100 CALM      30.28F FOG
DUBLIN*        MOCLDY    68  68 100 CALM      30.26F FOG
MARION*        MOCLDY   N/A N/A N/A NE6       30.28F HAZE
HILLSVILLE*    CLOUDY    67  66  97 CALM      30.28F FOG
RICHLANDS*     SUNNY     74  65  73 CALM      30.24S
WISE*          PTCLDY    68  66  94 SW5       30.25R
ABINGDON*      CLEAR     69  68  96 CALM      30.21F
$$

MDZ021>025-VAZ099-100-300800-
SOUTHERN MARYLAND AND THE DELMARVA PENINSULA

CITY           SKY/WX    TMP DP  RH WIND       PRES   REMARKS
PATUXENT RIVER CLEAR     64  59  83 SW3       30.21F
BAY BRIDGE APT   N/A     68  63  83 SE3       30.22F
LEONARDTOWN    MOCLDY    63  59  88 CALM      30.23S
DOVER          CLOUDY    64  62  93 SW3       30.22S
GEORGETOWN     PTCLDY    61  58  90 CALM      30.24S
EASTON         PTCLDY    65  65 100 CALM      30.26S
CAMBRIDGE      CLEAR     61  59  94 CALM      30.21F
SALISBURY      CLEAR     60  55  83 CALM      30.22F
OCEAN CITY     CLEAR     62  58  86 CALM      30.22S
WALLOPS ISLAND CLEAR     63  59  87 CALM      30.22F
ACCOMACK*      NOT AVBL
$$

NCZ012>017-030>032-300800-
EASTERN NORTH CAROLINA

CITY           SKY/WX    TMP DP  RH WIND       PRES   REMARKS
ELIZABETH CITY CLOUDY    74  66  76 E6        30.19F
AHOSKIE*       PTCLDY    69  65  88 CALM      30.19F
EDENTON*       CLOUDY    73  68  87 E3        30.18F
CURRITUCK*     CLOUDY    75  63  64 E6        30.20S
KILL DEVIL HLS CLOUDY    75  67  76 E8        30.18S HAZE
MANTEO         CLOUDY    75  68  79 E9        30.19S
CAPE HATTERAS  PTCLDY    75  75 100 E5        30.17S
GOLDSBORO      CLEAR     71  70  98 E3        30.15F
WASHINGTON     CLEAR     69  67  92 CALM      30.19S
GREENVILLE     CLEAR     70  68  94 CALM      30.19F
NEW BERN       CLEAR     74  70  87 CALM      30.18S
WILMINGTON     CLEAR     73  71  93 CALM      30.16R
$$

VAZ048-300800-
ELSEWHERE

CITY           SKY/WX    TMP DP  RH WIND       PRES   REMARKS
HARRISBURG PA  MOCLDY    63  56  78 E5        30.22S
BALTIMORE      MOCLDY    66  61  84 CALM      30.22F
ANNAPOLIS      CLOUDY    70  63  78 SE8       30.21F
ANDREWS AFB    CLEAR     64  62  94 SE3       30.22S
WILMINGTON DE  CLEAR     62  58  86 CALM      30.25S
PHILADELPHIA   PTCLDY    63  58  83 E5        30.25S
WILDWOOD NJ*   CLEAR     59  54  82 CALM      30.24F
ATLANTIC CITY  CLEAR     55  53  93 CALM      30.24S
HENDERSON NC   MOCLDY    71  64  79 CALM      30.20S
GREENSBORO     CLOUDY    74  72  93 CALM      30.19S
ROCKY MOUNT    CLEAR     70  67  90 CALM      30.18F
FAYETTEVILLE   CLEAR     72  69  90 CALM      30.16F
CHARLOTTE      PTCLDY    74  70  87 S5        30.18S
$$

VAZ100-300800-
MARINE

STATION/POSITION TIME  TEMP    WIND        PRES    WAVE   SWELL
                       AIR SEA DIR/SP/G            HT/PER HT/PER
                 (UTC) (F)     (DEG/KT/KT) (MB)    (FT/S) (FT/S)
44066 TX TWR #4  0700   70 72  120/ 10/ 12 1024.3F   3/ 8   3/ 8
CAPE MAY NJ      0700   67 79  100/  2/  2 1023.1F
LEWES DE         0700   70 76  130/  4/  6 1023.1F
15NM E FENWICK I 0700   72 73              1023.4F   3/ 9
OCEAN-CITY-INLET 0700   72 75  160/  5/  8 1023.0S
WACHAPREAGUE VA  0700   66 79   CALM  /  2 1023.0F
THOMAS POINT MD  0700   71 77  140/  9/ 10 1024.1F
GOOSES REEF MD   0700   71     150/ 10/ 12 1023.5S
COVE POINT MD    0700   72     150/  8/ 11 1023.1R
SOLOMONS ISLAND  0700      79                N/A
BISHOPS HEAD MD  0700   71 75  110/  8/  9 1022.7S
PINEY POINT MD   0700          170/  8/ 10   N/A
POTOMAC MD       0700   74     150/  8/ 10 1022.3S
CAMBRIDGE MD     0700   66 79  100/  3/  4 1023.0F
LEWISETTA VA     0700   71 78  170/  4/  5 1022.6F
RAPPAHANNOCK LGT 0700           90/  9/ 10 1023.2F
STINGRAY PT      0700   74     130/ 12/ 14   N/A
YORK RVR RNG VA  0700   75     140/ 12/ 14 1021.7F
YORKTOWN VA      0700   75 80  140/  6/  7 1022.1R
JAMESTOWN VA     0700   75     130/  8/ 12   N/A
DOMINION TERM VA 0700   75     110/ 10/ 12 1022.4S
KIPTOPEKE VA     0700      81  120/  7/  9   N/A
CHES BAY BRIDGE  0700   75 77  100/ 10/ 15 1021.6F
CAPE HENRY VA    0700   75     120/  9/ 12 1021.3F
CHESAPEAKE LGHT  0600   74     110/ 10/ 11 1023.3F
WILLOUBY STN VA  0700   75     100/  6/  8 1021.1R
S CRANEY ISL VA  0700          110/  6/  8 1022.0R
CAPE HENRY BUOY  0700      77                N/A     2/ 8
1ST LANDING BUOY 0700   76     120/ 12/ 14 1022.1F
CAPE CHARLES BUO 0700      76                N/A     2/ 8   2/ 8
OFFSHORE WE BUOY 0700      75                N/A     2/ 8   2/ 8
64NM E OF VA BCH 0700   76 76   70/  8/ 10 1022.3F   2/ 8   2/ 8
DUCK PIER NC     0700   76 78   80/ 12/ 14 1021.7S
44056 DUCK FRF   0700                        N/A     3/ 8
OREGON INLET NC  0700   75 79   50/  9/ 12 1022.1R
HATTERAS NC      0700   78 82   70/  2/  3 1022.0F
DIAMOND SHLS NC  0700   80     300/  2/  2 1021.4F   4/ 7   3/ 7
CAPE LOOKOUT NC  0600   80      60/  4/  4 1021.2F
$$


USA.gov is the U.S. government's official web portal to all federal, state and local government web resources and services.